Flag for U.S.A. Weather past 2 weeks in Manassas, Virginia, U.S.A.

Now
63 °F

Passing clouds.


Feels Like: 63 °F
Forecast: 55 / 67 °F
Wind: 9 mph from East

Location: Manassas Municipal

Current Time: Apr 19, 2015 at 9:33:24 AM

Latest Report: Apr 19, 2015 at 8:45 AM


Visibility: 10 mi

Pressure: 30.14 "Hg

Humidity: 39%

Dew point: 37 °F

Location of ManassasLocation

Historic Weather in Manassas — Graph

°F

Manassas temperature yesterday

Maximum temperature yesterday: 81 °F (at 3:45 PM)
Minimum temperature yesterday: 52 °F (at 5:55 AM)
Average temperature yesterday: 62 °F

Past Weeks' High & Low Weather Summary

 TemperatureHumidityPressure
High81 °F (Apr 18, 3:45 PM)100% (Apr 5, 2:55 AM)30.42 "Hg (Apr 5, 2:55 AM)
Low30 °F (Apr 5, 2:55 AM)14% (Apr 5, 4:45 PM)29.78 "Hg (Apr 10, 6:50 PM)
Average54 °F75%30.16 "Hg
* Reported Apr 4 7:45 AM — Apr 19 7:50 AM, Manassas, Weather by CustomWeather, © 2015

Note: Actual official high and low records may vary slightly from our data, if they occured in-between our weather recording intervals... More about our weather records

Advertising

Manassas weather history for previous 24 hours

 ConditionsComfort  
Time TempWeatherWind HumidityBarometerVisibility
7:50 AM
Sun, Apr 19
61 °FSunny.8 mph42%30.14 "Hg10 mi
6:55 AM61 °FClear.6 mph55%30.12 "Hg10 mi
6:15 AM55 °FClear.No wind77%30.09 "Hg10 mi
5:55 AM54 °FClear.3 mph82%30.08 "Hg10 mi
5:35 AM55 °FClear.3 mph77%30.07 "Hg10 mi
5:15 AM54 °FClear.3 mph82%30.06 "Hg10 mi
4:55 AM52 °FClear.No wind88%30.06 "Hg10 mi
4:35 AM52 °FClear.No wind94%30.05 "Hg10 mi
4:15 AM54 °FClear.No wind82%30.04 "Hg10 mi
3:55 AM55 °FClear.3 mph82%30.03 "Hg10 mi
3:35 AM55 °FClear.3 mph88%30.03 "Hg10 mi
3:15 AM55 °FClear.No wind88%30.03 "Hg10 mi
2:55 AM52 °FClear.No wind100%30.03 "Hg10 mi
2:35 AM52 °FClear.No wind100%30.02 "Hg10 mi
2:15 AM52 °FClear.No wind100%30.03 "Hg10 mi
1:55 AM52 °FClear.No wind100%30.03 "Hg10 mi
1:35 AM54 °FClear.No wind94%30.03 "Hg10 mi
1:15 AM54 °FClear.No wind94%30.03 "Hg10 mi
12:55 AM54 °FClear.No wind94%30.02 "Hg10 mi
12:35 AM54 °FClear.No wind94%30.03 "Hg10 mi
12:15 AM54 °FClear.No wind94%30.03 "Hg10 mi
11:55 PM
Sat, Apr 18
55 °FClear.No wind88%30.03 "Hg10 mi
11:35 PM55 °FClear.No wind88%30.03 "Hg10 mi
11:15 PM57 °FClear.No wind82%30.03 "Hg10 mi
10:55 PM57 °FClear.No wind82%30.02 "Hg10 mi
10:35 PM57 °FClear.No wind88%30.01 "Hg10 mi
9:50 PM59 °FClear.No wind82%30.00 "Hg10 mi
8:45 PM63 °FSunny.No wind73%29.98 "Hg10 mi
6:50 PM77 °FSunny.3 mph30%29.95 "Hg10 mi
5:45 PM79 °FSunny.3 mph28%29.97 "Hg10 mi
4:50 PM81 °FSunny.7 mph28%29.96 "Hg10 mi
3:45 PM81 °FSunny.3 mph26%29.95 "Hg10 mi
2:50 PM79 °FSunny.9 mph28%29.97 "Hg10 mi
1:55 PM79 °FSunny.6 mph28%30.00 "Hg10 mi
12:45 PM75 °FSunny.6 mph36%30.01 "Hg10 mi
11:45 AM75 °FSunny.6 mph39%30.04 "Hg10 mi
10:55 AM73 °FSunny.3 mph44%30.04 "Hg10 mi
9:50 AM70 °FSunny.2 mph57%30.04 "Hg10 mi
Weather by CustomWeather, © 2015

See weather overviewHow to use our weather pages